{"data":{"norad_id":61256,"intl_designator":"2024-175P","name":"STARLINK-32431","alt_names":[],"object_type":"PAYLOAD","status":"ACTIVE","operator":null,"country":"US","launch_date":"2024-09-25","launch_site_code":"AFWTR","launch_vehicle":null,"mission":null,"orbit_class":"UNKNOWN","rcs_meters":null,"size_class":null,"mass_kg":null,"dimensions":null,"purposes":["comms"],"wikipedia_slug":null,"has_3d_model":false,"image_url":null,"decayed_at":null,"tle_current":{"epoch":"2026-05-25T04:10:06.888576Z","epoch_age_seconds":63314,"freshness":"FRESH","line1":"1 61256U 24175P   26145.17369084  .00000557  00000+0  30941-4 0  9992","line2":"2 61256  53.1603 198.7791 0001089  78.1840 281.9283 15.30197948 93167","mean_motion":15.30197948,"eccentricity":0.0001089,"inclination_deg":53.1603,"raan_deg":198.7791,"arg_perigee_deg":78.184,"mean_anomaly_deg":281.9283,"bstar":3.0941e-5,"rev_number":9316,"period_min":94.105471901992,"perigee_km":474.47486562072,"apogee_km":475.96752703588,"semimajor_km":6853.3581963283,"source":"CELESTRAK","updated_at":"2026-05-25T13:38:19.366458Z"}}}